Time,TemperatureF,DewpointF,PressureIn,WindDirection,WindDirectionDegrees,WindSpeedMPH,WindSpeedGustMPH,Humidity,HourlyPrecipIn,Conditions,Clouds,dailyrainin,SoftwareType,DateUTC
2013-03-19 00:01:00,38.0,32.1,30.23,SSE,148,1.0,1.0,79,0.00,,,0.00,WeatherCatV1.10B1784,2013-03-19 07:01:00,
2013-03-19 00:06:00,37.8,31.9,30.22,ESE,118,2.0,2.0,79,0.00,,,0.00,WeatherCatV1.10B1784,2013-03-19 07:06:00,
2013-03-19 00:11:00,38.1,32.5,30.23,ESE,114,0.0,1.0,80,0.00,,,0.00,WeatherCatV1.10B1784,2013-03-19 07:11:00,
2013-03-19 00:16:00,38.8,33.5,30.23,East,86,0.0,1.0,81,0.00,,,0.00,WeatherCatV1.10B1784,2013-03-19 07:16:00,
2013-03-19 00:21:00,39.0,33.4,30.23,East,86,0.0,0.0,80,0.00,,,0.00,WeatherCatV1.10B1784,2013-03-19 07:21:00,
2013-03-19 00:26:00,38.7,33.1,30.23,SSW,210,2.0,3.0,80,0.00,,,0.00,WeatherCatV1.10B1784,2013-03-19 07:26:00,
2013-03-19 00:31:00,38.4,32.8,30.23,South,184,2.0,2.0,80,0.00,,,0.00,WeatherCatV1.10B1784,2013-03-19 07:31:00,
2013-03-19 00:36:00,38.4,32.8,30.23,South,180,1.0,2.0,80,0.00,,,0.00,WeatherCatV1.10B1784,2013-03-19 07:36:00,
2013-03-19 00:41:00,38.5,32.6,30.22,SSE,167,2.0,2.0,79,0.00,,,0.00,WeatherCatV1.10B1784,2013-03-19 07:41:00,
2013-03-19 00:46:00,38.3,32.4,30.22,SSE,163,2.0,2.0,79,0.00,,,0.00,WeatherCatV1.10B1784,2013-03-19 07:46:00,
2013-03-19 00:51:00,37.7,31.8,30.22,SSE,153,1.0,2.0,79,0.00,,,0.00,WeatherCatV1.10B1784,2013-03-19 07:51:00,
2013-03-19 00:56:00,37.3,31.7,30.22,SSE,166,2.0,2.0,80,0.00,,,0.00,WeatherCatV1.10B1784,2013-03-19 07:56:00,
2013-03-19 01:01:00,37.0,31.7,30.22,SSE,153,2.0,3.0,81,0.00,,,0.00,WeatherCatV1.10B1784,2013-03-19 08:01:00,
2013-03-19 01:06:00,36.9,31.9,30.22,SE,124,3.0,3.0,82,0.00,,,0.00,WeatherCatV1.10B1784,2013-03-19 08:06:00,
2013-03-19 01:11:00,36.9,32.2,30.22,South,173,2.0,2.0,83,0.00,,,0.00,WeatherCatV1.10B1784,2013-03-19 08:11:00,
2013-03-19 01:16:00,37.1,32.4,30.22,SSE,168,2.0,2.0,83,0.00,,,0.00,WeatherCatV1.10B1784,2013-03-19 08:16:00,
2013-03-19 01:21:00,37.2,32.8,30.22,South,174,1.0,2.0,84,0.00,,,0.00,WeatherCatV1.10B1784,2013-03-19 08:21:00,
2013-03-19 01:26:00,37.1,32.4,30.22,SSE,152,1.0,2.0,83,0.00,,,0.00,WeatherCatV1.10B1784,2013-03-19 08:26:00,
2013-03-19 01:31:00,36.8,32.4,30.22,SSE,153,1.0,2.0,84,0.00,,,0.00,WeatherCatV1.10B1784,2013-03-19 08:31:00,
2013-03-19 01:36:00,36.9,33.1,30.21,SSE,154,2.0,2.0,86,0.00,,,0.00,WeatherCatV1.10B1784,2013-03-19 08:36:00,
2013-03-19 01:41:00,37.0,33.2,30.21,SSE,149,2.0,2.0,86,0.00,,,0.00,WeatherCatV1.10B1784,2013-03-19 08:41:00,
2013-03-19 01:46:00,36.9,33.1,30.21,South,169,2.0,2.0,86,0.00,,,0.00,WeatherCatV1.10B1784,2013-03-19 08:46:00,
2013-03-19 01:51:00,36.9,33.4,30.21,SSW,204,2.0,2.0,87,0.00,,,0.00,WeatherCatV1.10B1784,2013-03-19 08:51:00,
2013-03-19 01:56:00,37.0,33.5,30.21,South,181,2.0,2.0,87,0.00,,,0.00,WeatherCatV1.10B1784,2013-03-19 08:56:00,
2013-03-19 02:01:00,36.9,33.1,30.21,SSE,165,1.0,2.0,86,0.00,,,0.00,WeatherCatV1.10B1784,2013-03-19 09:01:00,
2013-03-19 02:06:00,36.7,33.2,30.21,SSE,166,1.0,1.0,87,0.00,,,0.00,WeatherCatV1.10B1784,2013-03-19 09:06:00,
2013-03-19 02:11:00,36.5,33.0,30.21,SE,143,1.0,1.0,87,0.00,,,0.00,WeatherCatV1.10B1784,2013-03-19 09:11:00,
2013-03-19 02:16:00,36.4,32.9,30.21,SSE,156,2.0,2.0,87,0.00,,,0.00,WeatherCatV1.10B1784,2013-03-19 09:16:00,
2013-03-19 02:21:00,36.5,33.0,30.21,SSE,165,1.0,2.0,87,0.00,,,0.00,WeatherCatV1.10B1784,2013-03-19 09:21:00,
2013-03-19 02:26:00,36.7,33.5,30.21,SSW,203,1.0,2.0,88,0.00,,,0.00,WeatherCatV1.10B1784,2013-03-19 09:26:00,
2013-03-19 02:31:00,37.0,33.5,30.21,South,179,1.0,2.0,87,0.00,,,0.00,WeatherCatV1.10B1784,2013-03-19 09:31:00,
2013-03-19 02:36:00,37.2,33.7,30.21,South,169,1.0,1.0,87,0.00,,,0.00,WeatherCatV1.10B1784,2013-03-19 09:36:00,
2013-03-19 02:41:00,37.3,33.5,30.21,SSE,155,1.0,1.0,86,0.00,,,0.00,WeatherCatV1.10B1784,2013-03-19 09:41:00,
2013-03-19 02:46:00,37.3,33.5,30.22,SSE,149,0.0,2.0,86,0.00,,,0.00,WeatherCatV1.10B1784,2013-03-19 09:46:00,
2013-03-19 02:51:00,37.4,33.6,30.22,SE,138,0.0,1.0,86,0.00,,,0.00,WeatherCatV1.10B1784,2013-03-19 09:51:00,
2013-03-19 02:56:00,37.4,33.6,30.22,SSE,150,0.0,3.0,86,0.00,,,0.00,WeatherCatV1.10B1784,2013-03-19 09:56:00,
2013-03-19 03:01:00,37.4,33.6,30.21,SE,131,0.0,1.0,86,0.00,,,0.00,WeatherCatV1.10B1784,2013-03-19 10:01:00,
2013-03-19 03:06:00,37.5,33.4,30.21,SE,139,0.0,2.0,85,0.00,,,0.00,WeatherCatV1.10B1784,2013-03-19 10:06:00,
2013-03-19 03:11:00,37.7,33.6,30.21,SE,130,0.0,1.0,85,0.00,,,0.00,WeatherCatV1.10B1784,2013-03-19 10:11:00,
2013-03-19 03:16:00,37.8,33.7,30.21,ESE,105,0.0,2.0,85,0.00,,,0.00,WeatherCatV1.10B1784,2013-03-19 10:16:00,
2013-03-19 03:21:00,37.8,33.7,30.21,ESE,121,2.0,2.0,85,0.00,,,0.00,WeatherCatV1.10B1784,2013-03-19 10:21:00,
2013-03-19 03:26:00,37.9,33.8,30.20,ESE,120,0.0,0.0,85,0.00,,,0.00,WeatherCatV1.10B1784,2013-03-19 10:26:00,
2013-03-19 03:31:00,37.9,33.8,30.20,SE,131,1.0,1.0,85,0.00,,,0.00,WeatherCatV1.10B1784,2013-03-19 10:31:00,
2013-03-19 03:36:00,37.9,33.8,30.20,SE,138,0.0,2.0,85,0.00,,,0.00,WeatherCatV1.10B1784,2013-03-19 10:36:00,
2013-03-19 03:41:00,37.9,33.8,30.20,SE,140,1.0,1.0,85,0.00,,,0.00,WeatherCatV1.10B1784,2013-03-19 10:41:00,
2013-03-19 03:46:00,37.8,33.7,30.20,SE,134,0.0,1.0,85,0.00,,,0.00,WeatherCatV1.10B1784,2013-03-19 10:46:00,
2013-03-19 03:51:00,37.7,33.6,30.20,SE,124,1.0,3.0,85,0.00,,,0.00,WeatherCatV1.10B1784,2013-03-19 10:51:00,
2013-03-19 03:56:00,37.6,33.5,30.20,ESE,114,2.0,2.0,85,0.00,,,0.00,WeatherCatV1.10B1784,2013-03-19 10:56:00,
2013-03-19 04:01:00,37.5,33.4,30.19,ESE,102,0.0,2.0,85,0.00,,,0.00,WeatherCatV1.10B1784,2013-03-19 11:01:00,
2013-03-19 04:06:00,37.6,33.5,30.19,SE,124,2.0,3.0,85,0.00,,,0.00,WeatherCatV1.10B1784,2013-03-19 11:06:00,
2013-03-19 04:11:00,37.8,33.7,30.19,SSE,163,0.0,1.0,85,0.00,,,0.00,WeatherCatV1.10B1784,2013-03-19 11:11:00,
2013-03-19 04:16:00,37.8,33.7,30.19,ESE,120,0.0,3.0,85,0.00,,,0.00,WeatherCatV1.10B1784,2013-03-19 11:16:00,
2013-03-19 04:21:00,38.1,34.3,30.19,ESE,121,1.0,4.0,86,0.00,,,0.00,WeatherCatV1.10B1784,2013-03-19 11:21:00,
2013-03-19 04:26:00,38.1,34.3,30.19,SSE,148,0.0,3.0,86,0.00,,,0.00,WeatherCatV1.10B1784,2013-03-19 11:26:00,
2013-03-19 04:31:00,38.3,34.5,30.19,SSE,163,0.0,2.0,86,0.00,,,0.00,WeatherCatV1.10B1784,2013-03-19 11:31:00,
2013-03-19 04:36:00,38.3,34.5,30.19,SW,214,0.0,2.0,86,0.00,,,0.00,WeatherCatV1.10B1784,2013-03-19 11:36:00,
2013-03-19 04:41:00,38.2,34.4,30.19,ESE,123,2.0,3.0,86,0.00,,,0.00,WeatherCatV1.10B1784,2013-03-19 11:41:00,
2013-03-19 04:46:00,38.3,34.5,30.18,ESE,120,0.0,1.0,86,0.00,,,0.00,WeatherCatV1.10B1784,2013-03-19 11:46:00,
2013-03-19 04:51:00,38.3,34.8,30.18,SSW,201,0.0,4.0,87,0.00,,,0.00,WeatherCatV1.10B1784,2013-03-19 11:51:00,
2013-03-19 04:56:00,38.4,34.9,30.18,SE,143,0.0,1.0,87,0.00,,,0.00,WeatherCatV1.10B1784,2013-03-19 11:56:00,
2013-03-19 05:01:00,38.6,35.1,30.18,ESE,118,1.0,4.0,87,0.00,,,0.00,WeatherCatV1.10B1784,2013-03-19 12:01:00,
2013-03-19 05:06:00,38.7,34.9,30.18,East,101,2.0,2.0,86,0.00,,,0.00,WeatherCatV1.10B1784,2013-03-19 12:06:00,
2013-03-19 05:11:00,38.7,34.9,30.18,ESE,120,0.0,2.0,86,0.00,,,0.00,WeatherCatV1.10B1784,2013-03-19 12:11:00,
2013-03-19 05:16:00,38.6,34.5,30.18,SE,137,0.0,3.0,85,0.00,,,0.00,WeatherCatV1.10B1784,2013-03-19 12:16:00,
2013-03-19 05:21:00,38.5,34.4,30.17,SW,214,3.0,3.0,85,0.00,,,0.00,WeatherCatV1.10B1784,2013-03-19 12:21:00,
2013-03-19 05:26:00,38.5,34.4,30.17,SSE,155,3.0,5.0,85,0.00,,,0.00,WeatherCatV1.10B1784,2013-03-19 12:26:00,
2013-03-19 05:31:00,38.4,34.3,30.17,SSE,147,0.0,2.0,85,0.00,,,0.00,WeatherCatV1.10B1784,2013-03-19 12:31:00,
2013-03-19 05:36:00,38.2,34.1,30.17,SSW,208,0.0,1.0,85,0.00,,,0.00,WeatherCatV1.10B1784,2013-03-19 12:36:00,
2013-03-19 05:41:00,38.0,33.9,30.17,SSW,205,0.0,1.0,85,0.00,,,0.00,WeatherCatV1.10B1784,2013-03-19 12:41:00,
2013-03-19 05:46:00,37.9,34.1,30.17,East,84,0.0,0.0,86,0.00,,,0.00,WeatherCatV1.10B1784,2013-03-19 12:46:00,
2013-03-19 05:51:00,37.8,34.0,30.17,ESE,106,0.0,3.0,86,0.00,,,0.00,WeatherCatV1.10B1784,2013-03-19 12:51:00,
2013-03-19 05:56:00,37.8,34.0,30.17,SE,133,0.0,2.0,86,0.00,,,0.00,WeatherCatV1.10B1784,2013-03-19 12:56:00,
2013-03-19 06:01:00,37.7,33.9,30.17,SE,146,3.0,3.0,86,0.00,,,0.00,WeatherCatV1.10B1784,2013-03-19 13:01:00,
2013-03-19 06:06:00,37.8,34.0,30.17,SE,134,1.0,4.0,86,0.00,,,0.00,WeatherCatV1.10B1784,2013-03-19 13:06:00,
2013-03-19 06:11:00,37.8,34.0,30.17,ESE,113,1.0,1.0,86,0.00,,,0.00,WeatherCatV1.10B1784,2013-03-19 13:11:00,
2013-03-19 06:16:00,37.7,33.9,30.17,SE,131,2.0,2.0,86,0.00,,,0.00,WeatherCatV1.10B1784,2013-03-19 13:16:00,
2013-03-19 06:21:00,37.6,33.8,30.16,SE,127,0.0,1.0,86,0.00,,,0.00,WeatherCatV1.10B1784,2013-03-19 13:21:00,
2013-03-19 06:26:00,37.5,33.7,30.16,SE,142,1.0,2.0,86,0.00,,,0.00,WeatherCatV1.10B1784,2013-03-19 13:26:00,
2013-03-19 06:31:00,37.5,33.7,30.16,East,101,0.0,1.0,86,0.00,,,0.00,WeatherCatV1.10B1784,2013-03-19 13:31:00,
2013-03-19 06:36:00,37.4,33.6,30.16,East,96,1.0,1.0,86,0.00,,,0.00,WeatherCatV1.10B1784,2013-03-19 13:36:00,
2013-03-19 06:41:00,37.3,33.5,30.16,WSW,250,0.0,1.0,86,0.00,,,0.00,WeatherCatV1.10B1784,2013-03-19 13:41:00,
2013-03-19 06:46:00,37.4,33.6,30.15,SE,133,0.0,1.0,86,0.00,,,0.00,WeatherCatV1.10B1784,2013-03-19 13:46:00,
2013-03-19 06:51:00,37.3,33.5,30.15,SSE,155,0.0,0.0,86,0.00,,,0.00,WeatherCatV1.10B1784,2013-03-19 13:51:00,
2013-03-19 06:56:00,37.3,33.8,30.15,SSW,204,0.0,1.0,87,0.00,,,0.00,WeatherCatV1.10B1784,2013-03-19 13:56:00,
2013-03-19 07:01:00,37.3,33.8,30.14,ESE,114,0.0,1.0,87,0.00,,,0.00,WeatherCatV1.10B1784,2013-03-19 14:01:00,
2013-03-19 07:06:00,37.2,33.7,30.14,SW,222,1.0,3.0,87,0.00,,,0.00,WeatherCatV1.10B1784,2013-03-19 14:06:00,
2013-03-19 07:11:00,37.2,33.7,30.14,SW,225,0.0,0.0,87,0.00,,,0.00,WeatherCatV1.10B1784,2013-03-19 14:11:00,
2013-03-19 07:16:00,37.0,33.5,30.13,ESE,103,0.0,1.0,87,0.00,,,0.00,WeatherCatV1.10B1784,2013-03-19 14:16:00,
2013-03-19 07:21:00,37.0,33.5,30.13,SSE,163,0.0,0.0,87,0.00,,,0.00,WeatherCatV1.10B1784,2013-03-19 14:21:00,
2013-03-19 07:26:00,37.0,33.8,30.13,South,186,2.0,3.0,88,0.00,,,0.00,WeatherCatV1.10B1784,2013-03-19 14:26:00,
2013-03-19 07:31:00,37.2,34.0,30.12,South,183,4.0,5.0,88,0.00,,,0.00,WeatherCatV1.10B1784,2013-03-19 14:31:00,
2013-03-19 07:36:00,37.5,34.3,30.13,SW,219,3.0,6.0,88,0.00,,,0.00,WeatherCatV1.10B1784,2013-03-19 14:36:00,
2013-03-19 07:41:00,37.7,34.2,30.12,South,174,3.0,6.0,87,0.00,,,0.00,WeatherCatV1.10B1784,2013-03-19 14:41:00,
2013-03-19 07:46:00,37.9,34.4,30.12,SW,217,5.0,6.0,87,0.00,,,0.00,WeatherCatV1.10B1784,2013-03-19 14:46:00,
2013-03-19 07:51:00,38.0,34.5,30.12,SSE,162,6.0,7.0,87,0.00,,,0.00,WeatherCatV1.10B1784,2013-03-19 14:51:00,
2013-03-19 07:56:00,38.1,34.6,30.12,SSW,193,1.0,4.0,87,0.00,,,0.00,WeatherCatV1.10B1784,2013-03-19 14:56:00,
2013-03-19 08:01:00,38.1,34.3,30.12,ESE,110,0.0,3.0,86,0.00,,,0.00,WeatherCatV1.10B1784,2013-03-19 15:01:00,
2013-03-19 08:06:00,38.1,34.6,30.12,SSW,208,1.0,3.0,87,0.00,,,0.00,WeatherCatV1.10B1784,2013-03-19 15:06:00,
2013-03-19 08:11:00,38.2,34.7,30.12,WSW,238,0.0,2.0,87,0.00,,,0.00,WeatherCatV1.10B1784,2013-03-19 15:11:00,
2013-03-19 08:16:00,38.3,34.8,30.11,SSE,167,1.0,3.0,87,0.00,,,0.00,WeatherCatV1.10B1784,2013-03-19 15:16:00,
2013-03-19 08:21:00,38.4,34.9,30.11,SW,219,2.0,2.0,87,0.00,,,0.00,WeatherCatV1.10B1784,2013-03-19 15:21:00,
2013-03-19 08:26:00,38.5,35.0,30.11,WSW,252,1.0,5.0,87,0.00,,,0.00,WeatherCatV1.10B1784,2013-03-19 15:26:00,
2013-03-19 08:31:00,38.7,35.2,30.11,South,174,1.0,4.0,87,0.00,,,0.00,WeatherCatV1.10B1784,2013-03-19 15:31:00,
2013-03-19 08:36:00,38.8,35.3,30.10,South,184,3.0,4.0,87,0.00,,,0.00,WeatherCatV1.10B1784,2013-03-19 15:36:00,
2013-03-19 08:41:00,38.9,35.4,30.10,South,176,2.0,6.0,87,0.00,,,0.00,WeatherCatV1.10B1784,2013-03-19 15:41:00,
2013-03-19 08:46:00,39.1,35.3,30.10,NW,305,0.0,5.0,86,0.00,,,0.00,WeatherCatV1.10B1784,2013-03-19 15:46:00,
2013-03-19 08:51:00,39.3,35.5,30.10,South,169,3.0,6.0,86,0.00,,,0.00,WeatherCatV1.10B1784,2013-03-19 15:51:00,
2013-03-19 08:56:00,39.5,35.7,30.10,SE,138,1.0,5.0,86,0.00,,,0.00,WeatherCatV1.10B1784,2013-03-19 15:56:00,
2013-03-19 09:01:00,39.8,35.7,30.10,West,274,1.0,5.0,85,0.00,,,0.00,WeatherCatV1.10B1784,2013-03-19 16:01:00,
2013-03-19 09:06:00,40.2,36.1,30.09,SSE,160,3.0,4.0,85,0.00,,,0.00,WeatherCatV1.10B1784,2013-03-19 16:06:00,
2013-03-19 09:11:00,40.4,36.0,30.09,SW,217,1.0,4.0,84,0.00,,,0.00,WeatherCatV1.10B1784,2013-03-19 16:11:00,
2013-03-19 09:16:00,40.7,35.9,30.09,SSE,166,5.0,8.0,83,0.00,,,0.00,WeatherCatV1.10B1784,2013-03-19 16:16:00,
2013-03-19 09:21:00,40.8,35.7,30.09,SSE,157,2.0,7.0,82,0.00,,,0.00,WeatherCatV1.10B1784,2013-03-19 16:21:00,
2013-03-19 09:26:00,41.0,35.9,30.09,SSE,158,2.0,8.0,82,0.00,,,0.00,WeatherCatV1.10B1784,2013-03-19 16:26:00,
2013-03-19 09:31:00,41.1,35.7,30.09,SW,217,2.0,4.0,81,0.00,,,0.00,WeatherCatV1.10B1784,2013-03-19 16:31:00,
2013-03-19 09:36:00,41.1,35.4,30.09,East,96,1.0,7.0,80,0.00,,,0.00,WeatherCatV1.10B1784,2013-03-19 16:36:00,
2013-03-19 09:41:00,41.2,35.5,30.08,SW,214,7.0,7.0,80,0.00,,,0.00,WeatherCatV1.10B1784,2013-03-19 16:41:00,
2013-03-19 09:46:00,41.3,35.6,30.08,WNW,292,0.0,4.0,80,0.00,,,0.00,WeatherCatV1.10B1784,2013-03-19 16:46:00,
2013-03-19 09:51:00,41.5,35.5,30.08,SE,145,1.0,5.0,79,0.00,,,0.00,WeatherCatV1.10B1784,2013-03-19 16:51:00,
2013-03-19 09:56:00,41.6,35.6,30.08,ESE,121,0.0,5.0,79,0.00,,,0.00,WeatherCatV1.10B1784,2013-03-19 16:56:00,
2013-03-19 10:01:00,41.8,35.5,30.08,SSW,204,5.0,7.0,78,0.00,,,0.00,WeatherCatV1.10B1784,2013-03-19 17:01:00,
2013-03-19 10:06:00,41.7,35.4,30.08,South,169,2.0,5.0,78,0.00,,,0.00,WeatherCatV1.10B1784,2013-03-19 17:06:00,
2013-03-19 10:11:00,41.8,35.5,30.07,WSW,246,3.0,3.0,78,0.00,,,0.00,WeatherCatV1.10B1784,2013-03-19 17:11:00,
2013-03-19 10:16:00,41.8,35.1,30.07,SW,226,2.0,6.0,77,0.00,,,0.00,WeatherCatV1.10B1784,2013-03-19 17:16:00,
2013-03-19 10:21:00,42.0,35.3,30.07,SSW,194,3.0,6.0,77,0.00,,,0.00,WeatherCatV1.10B1784,2013-03-19 17:21:00,
2013-03-19 10:26:00,42.1,35.1,30.07,SE,127,1.0,7.0,76,0.00,,,0.00,WeatherCatV1.10B1784,2013-03-19 17:26:00,
2013-03-19 10:31:00,42.1,34.8,30.07,SE,127,8.0,8.0,75,0.00,,,0.00,WeatherCatV1.10B1784,2013-03-19 17:31:00,
2013-03-19 10:36:00,42.0,34.7,30.06,ESE,112,6.0,9.0,75,0.00,,,0.00,WeatherCatV1.10B1784,2013-03-19 17:36:00,
2013-03-19 10:41:00,42.0,35.0,30.06,SSE,158,5.0,9.0,76,0.00,,,0.00,WeatherCatV1.10B1784,2013-03-19 17:41:00,
2013-03-19 10:46:00,42.1,35.1,30.06,WSW,252,0.0,7.0,76,0.00,,,0.00,WeatherCatV1.10B1784,2013-03-19 17:46:00,
2013-03-19 10:51:00,42.3,35.3,30.06,SW,226,0.0,8.0,76,0.00,,,0.00,WeatherCatV1.10B1784,2013-03-19 17:51:00,
2013-03-19 10:56:00,42.2,35.2,30.05,SE,129,5.0,8.0,76,0.00,,,0.00,WeatherCatV1.10B1784,2013-03-19 17:56:00,
2013-03-19 11:01:00,42.2,35.2,30.05,ESE,123,3.0,8.0,76,0.00,,,0.00,WeatherCatV1.10B1784,2013-03-19 18:01:00,
2013-03-19 11:06:00,42.2,35.5,30.05,SSE,152,1.0,4.0,77,0.00,,,0.00,WeatherCatV1.10B1784,2013-03-19 18:06:00,
2013-03-19 11:11:00,42.4,35.4,30.05,SSE,155,2.0,7.0,76,0.00,,,0.00,WeatherCatV1.10B1784,2013-03-19 18:11:00,
2013-03-19 11:16:00,42.4,35.4,30.04,West,277,1.0,8.0,76,0.00,,,0.00,WeatherCatV1.10B1784,2013-03-19 18:16:00,
2013-03-19 11:21:00,42.5,35.5,30.04,SE,139,4.0,9.0,76,0.00,,,0.00,WeatherCatV1.10B1784,2013-03-19 18:21:00,
2013-03-19 11:26:00,42.4,35.0,30.03,SE,139,2.0,4.0,75,0.00,,,0.00,WeatherCatV1.10B1784,2013-03-19 18:26:00,
2013-03-19 11:31:00,42.7,35.3,30.03,South,181,4.0,9.0,75,0.00,,,0.00,WeatherCatV1.10B1784,2013-03-19 18:31:00,
2013-03-19 11:36:00,42.8,34.8,30.03,SE,146,5.0,8.0,73,0.00,,,0.00,WeatherCatV1.10B1784,2013-03-19 18:36:00,
2013-03-19 11:41:00,43.1,34.7,30.02,ESE,109,2.0,7.0,72,0.00,,,0.00,WeatherCatV1.10B1784,2013-03-19 18:41:00,
2013-03-19 11:46:00,43.1,34.7,30.02,SE,124,3.0,5.0,72,0.00,,,0.00,WeatherCatV1.10B1784,2013-03-19 18:46:00,
2013-03-19 11:51:00,43.2,34.4,30.02,SSE,160,1.0,4.0,71,0.00,,,0.00,WeatherCatV1.10B1784,2013-03-19 18:51:00,
2013-03-19 11:56:00,43.3,34.5,30.01,SW,229,2.0,6.0,71,0.00,,,0.00,WeatherCatV1.10B1784,2013-03-19 18:56:00,
2013-03-19 12:01:00,43.3,34.5,30.01,SW,214,5.0,10.0,71,0.00,,,0.00,WeatherCatV1.10B1784,2013-03-19 19:01:00,
2013-03-19 12:06:00,43.4,34.6,30.00,ESE,121,2.0,7.0,71,0.00,,,0.00,WeatherCatV1.10B1784,2013-03-19 19:06:00,
2013-03-19 12:11:00,43.5,34.7,30.01,SE,142,1.0,5.0,71,0.00,,,0.00,WeatherCatV1.10B1784,2013-03-19 19:11:00,
2013-03-19 12:16:00,43.6,34.5,30.00,ESE,118,5.0,7.0,70,0.00,,,0.00,WeatherCatV1.10B1784,2013-03-19 19:16:00,
2013-03-19 12:21:00,43.8,34.7,30.00,ENE,74,2.0,5.0,70,0.00,,,0.00,WeatherCatV1.10B1784,2013-03-19 19:21:00,
2013-03-19 12:26:00,44.1,35.0,30.00,East,98,3.0,8.0,70,0.00,,,0.00,WeatherCatV1.10B1784,2013-03-19 19:26:00,
2013-03-19 12:31:00,43.9,35.1,30.00,West,278,1.0,12.0,71,0.00,,,0.00,WeatherCatV1.10B1784,2013-03-19 19:31:00,
2013-03-19 12:36:00,44.0,35.2,30.00,ESE,106,3.0,8.0,71,0.00,,,0.00,WeatherCatV1.10B1784,2013-03-19 19:36:00,
2013-03-19 12:41:00,44.1,34.2,29.99,SE,145,4.0,8.0,68,0.00,,,0.00,WeatherCatV1.10B1784,2013-03-19 19:41:00,
2013-03-19 12:46:00,44.1,33.5,29.98,ESE,117,4.0,6.0,66,0.00,,,0.00,WeatherCatV1.10B1784,2013-03-19 19:46:00,
2013-03-19 12:51:00,44.1,33.1,29.98,SSE,148,4.0,10.0,65,0.00,,,0.00,WeatherCatV1.10B1784,2013-03-19 19:51:00,
2013-03-19 12:56:00,44.3,33.7,29.98,South,169,4.0,9.0,66,0.00,,,0.00,WeatherCatV1.10B1784,2013-03-19 19:56:00,
2013-03-19 13:01:00,44.5,34.2,29.98,SE,143,3.0,5.0,67,0.00,,,0.00,WeatherCatV1.10B1784,2013-03-19 20:01:00,
2013-03-19 13:06:00,44.6,34.7,29.97,SE,141,8.0,15.0,68,0.00,,,0.00,WeatherCatV1.10B1784,2013-03-19 20:06:00,
2013-03-19 13:11:00,44.7,34.8,29.97,SSE,150,3.0,6.0,68,0.00,,,0.00,WeatherCatV1.10B1784,2013-03-19 20:11:00,
2013-03-19 13:16:00,44.6,34.3,29.97,SE,134,2.0,12.0,67,0.00,,,0.00,WeatherCatV1.10B1784,2013-03-19 20:16:00,
2013-03-19 13:21:00,44.8,35.3,29.96,South,169,1.0,7.0,69,0.00,,,0.00,WeatherCatV1.10B1784,2013-03-19 20:21:00,
2013-03-19 13:26:00,44.8,35.3,29.96,ESE,117,7.0,11.0,69,0.00,,,0.00,WeatherCatV1.10B1784,2013-03-19 20:26:00,
2013-03-19 13:31:00,44.3,35.1,29.96,ENE,61,7.0,8.0,70,0.00,,,0.00,WeatherCatV1.10B1784,2013-03-19 20:31:00,
2013-03-19 13:36:00,44.2,35.0,29.95,ESE,108,5.0,7.0,70,0.00,,,0.00,WeatherCatV1.10B1784,2013-03-19 20:36:00,
2013-03-19 13:41:00,44.3,35.5,29.94,East,86,1.0,5.0,71,0.00,,,0.00,WeatherCatV1.10B1784,2013-03-19 20:41:00,
2013-03-19 13:46:00,44.3,35.1,29.94,SW,214,2.0,6.0,70,0.00,,,0.00,WeatherCatV1.10B1784,2013-03-19 20:46:00,
2013-03-19 13:51:00,44.4,35.2,29.94,East,81,3.0,6.0,70,0.00,,,0.00,WeatherCatV1.10B1784,2013-03-19 20:51:00,
2013-03-19 13:56:00,44.2,33.6,29.94,SW,219,2.0,12.0,66,0.00,,,0.00,WeatherCatV1.10B1784,2013-03-19 20:56:00,
2013-03-19 14:01:00,44.0,33.8,29.94,West,271,3.0,9.0,67,0.00,,,0.00,WeatherCatV1.10B1784,2013-03-19 21:01:00,
2013-03-19 14:06:00,43.9,33.7,29.93,SE,137,2.0,5.0,67,0.00,,,0.00,WeatherCatV1.10B1784,2013-03-19 21:06:00,
2013-03-19 14:11:00,43.9,33.7,29.92,ESE,108,2.0,8.0,67,0.00,,,0.00,WeatherCatV1.10B1784,2013-03-19 21:11:00,
2013-03-19 14:16:00,43.9,32.9,29.92,SE,132,3.0,9.0,65,0.00,,,0.00,WeatherCatV1.10B1784,2013-03-19 21:16:00,
2013-03-19 14:21:00,44.0,33.0,29.92,SE,134,5.0,14.0,65,0.00,,,0.00,WeatherCatV1.10B1784,2013-03-19 21:21:00,
2013-03-19 14:26:00,44.0,32.6,29.92,ESE,107,3.0,6.0,64,0.00,,,0.00,WeatherCatV1.10B1784,2013-03-19 21:26:00,
2013-03-19 14:31:00,44.1,32.7,29.91,SSW,193,2.0,8.0,64,0.00,,,0.00,WeatherCatV1.10B1784,2013-03-19 21:31:00,
2013-03-19 14:36:00,44.2,32.8,29.91,SE,124,9.0,9.0,64,0.00,,,0.00,WeatherCatV1.10B1784,2013-03-19 21:36:00,
2013-03-19 14:41:00,44.1,32.3,29.91,SE,136,6.0,8.0,63,0.00,,,0.00,WeatherCatV1.10B1784,2013-03-19 21:41:00,
2013-03-19 14:46:00,44.0,32.6,29.91,SE,141,0.0,4.0,64,0.00,,,0.00,WeatherCatV1.10B1784,2013-03-19 21:46:00,
2013-03-19 14:51:00,44.0,33.0,29.91,ESE,102,6.0,13.0,65,0.00,,,0.00,WeatherCatV1.10B1784,2013-03-19 21:51:00,
2013-03-19 14:56:00,44.0,33.0,29.90,ESE,111,1.0,7.0,65,0.00,,,0.00,WeatherCatV1.10B1784,2013-03-19 21:56:00,
2013-03-19 15:01:00,44.1,33.5,29.90,ESE,107,3.0,8.0,66,0.00,,,0.00,WeatherCatV1.10B1784,2013-03-19 22:01:00,
2013-03-19 15:06:00,44.1,33.1,29.90,ESE,109,2.0,6.0,65,0.00,,,0.00,WeatherCatV1.10B1784,2013-03-19 22:06:00,
2013-03-19 15:11:00,44.2,33.6,29.89,SSE,156,1.0,4.0,66,0.00,,,0.00,WeatherCatV1.10B1784,2013-03-19 22:11:00,
2013-03-19 15:16:00,44.3,33.3,29.89,SE,134,3.0,6.0,65,0.00,,,0.00,WeatherCatV1.10B1784,2013-03-19 22:16:00,
2013-03-19 15:21:00,44.5,33.1,29.88,SE,137,1.0,7.0,64,0.00,,,0.00,WeatherCatV1.10B1784,2013-03-19 22:21:00,
2013-03-19 15:26:00,44.7,33.3,29.88,SE,124,9.0,9.0,64,0.00,,,0.00,WeatherCatV1.10B1784,2013-03-19 22:26:00,
2013-03-19 15:31:00,44.8,33.4,29.87,ESE,120,1.0,5.0,64,0.00,,,0.00,WeatherCatV1.10B1784,2013-03-19 22:31:00,
2013-03-19 15:36:00,45.1,33.7,29.87,SE,129,3.0,9.0,64,0.00,,,0.00,WeatherCatV1.10B1784,2013-03-19 22:36:00,
2013-03-19 15:41:00,45.2,33.8,29.87,SE,127,3.0,5.0,64,0.00,,,0.00,WeatherCatV1.10B1784,2013-03-19 22:41:00,
2013-03-19 15:46:00,45.2,33.4,29.87,SE,124,3.0,7.0,63,0.00,,,0.00,WeatherCatV1.10B1784,2013-03-19 22:46:00,
2013-03-19 15:51:00,45.3,33.1,29.87,ESE,106,5.0,6.0,62,0.00,,,0.00,WeatherCatV1.10B1784,2013-03-19 22:51:00,
2013-03-19 15:56:00,45.1,33.3,29.86,WSW,252,1.0,7.0,63,0.00,,,0.00,WeatherCatV1.10B1784,2013-03-19 22:56:00,
2013-03-19 16:01:00,45.1,33.3,29.86,ESE,110,5.0,10.0,63,0.00,,,0.00,WeatherCatV1.10B1784,2013-03-19 23:01:00,
2013-03-19 16:06:00,45.1,33.7,29.86,South,187,4.0,4.0,64,0.00,,,0.00,WeatherCatV1.10B1784,2013-03-19 23:06:00,
2013-03-19 16:11:00,45.1,34.0,29.85,South,186,1.0,6.0,65,0.00,,,0.00,WeatherCatV1.10B1784,2013-03-19 23:11:00,
2013-03-19 16:16:00,45.1,34.0,29.85,ENE,66,1.0,6.0,65,0.00,,,0.00,WeatherCatV1.10B1784,2013-03-19 23:16:00,
2013-03-19 16:21:00,45.1,33.7,29.84,South,181,2.0,4.0,64,0.00,,,0.00,WeatherCatV1.10B1784,2013-03-19 23:21:00,
2013-03-19 16:26:00,45.0,33.6,29.84,SSE,160,2.0,6.0,64,0.00,,,0.00,WeatherCatV1.10B1784,2013-03-19 23:26:00,
2013-03-19 16:31:00,45.1,34.0,29.84,SSW,193,1.0,5.0,65,0.00,,,0.00,WeatherCatV1.10B1784,2013-03-19 23:31:00,
2013-03-19 16:36:00,45.2,34.1,29.84,SSE,149,1.0,4.0,65,0.00,,,0.00,WeatherCatV1.10B1784,2013-03-19 23:36:00,
2013-03-19 16:41:00,45.2,34.1,29.83,SSE,148,3.0,6.0,65,0.00,,,0.00,WeatherCatV1.10B1784,2013-03-19 23:41:00,
2013-03-19 16:46:00,45.2,34.1,29.83,SSW,195,1.0,6.0,65,0.00,,,0.00,WeatherCatV1.10B1784,2013-03-19 23:46:00,
2013-03-19 16:51:00,45.3,34.6,29.83,ESE,121,2.0,3.0,66,0.00,,,0.00,WeatherCatV1.10B1784,2013-03-19 23:51:00,
2013-03-19 16:56:00,45.3,34.2,29.83,SE,134,0.0,2.0,65,0.00,,,0.00,WeatherCatV1.10B1784,2013-03-19 23:56:00,
2013-03-19 17:01:00,45.3,33.8,29.82,SE,146,4.0,8.0,64,0.00,,,0.00,WeatherCatV1.10B1784,2013-03-20 00:01:00,
2013-03-19 17:06:00,45.3,33.8,29.82,NE,49,1.0,3.0,64,0.00,,,0.00,WeatherCatV1.10B1784,2013-03-20 00:06:00,
2013-03-19 17:11:00,45.3,33.8,29.81,East,101,3.0,6.0,64,0.00,,,0.00,WeatherCatV1.10B1784,2013-03-20 00:11:00,
2013-03-19 17:16:00,45.2,33.8,29.81,ESE,117,11.0,11.0,64,0.00,,,0.00,WeatherCatV1.10B1784,2013-03-20 00:16:00,
2013-03-19 17:21:00,45.1,33.3,29.81,ESE,110,2.0,5.0,63,0.00,,,0.00,WeatherCatV1.10B1784,2013-03-20 00:21:00,
2013-03-19 17:26:00,45.0,34.0,29.81,ESE,102,5.0,10.0,65,0.00,,,0.00,WeatherCatV1.10B1784,2013-03-20 00:26:00,
2013-03-19 17:31:00,44.8,34.5,29.81,East,84,4.0,7.0,67,0.00,,,0.00,WeatherCatV1.10B1784,2013-03-20 00:31:00,
2013-03-19 17:36:00,44.6,35.4,29.80,ESE,105,7.0,7.0,70,0.00,,,0.00,WeatherCatV1.10B1784,2013-03-20 00:36:00,
2013-03-19 17:41:00,44.3,35.5,29.80,ESE,112,7.0,9.0,71,0.00,,,0.00,WeatherCatV1.10B1784,2013-03-20 00:41:00,
2013-03-19 17:46:00,43.9,36.2,29.80,SSE,149,5.0,13.0,74,0.00,,,0.00,WeatherCatV1.10B1784,2013-03-20 00:46:00,
2013-03-19 17:51:00,43.6,36.5,29.79,SE,134,7.0,12.0,76,0.00,,,0.00,WeatherCatV1.10B1784,2013-03-20 00:51:00,
2013-03-19 17:56:00,43.5,36.8,29.79,SE,127,13.0,15.0,77,0.00,,,0.01,WeatherCatV1.10B1784,2013-03-20 00:56:00,
2013-03-19 18:01:00,43.3,37.2,29.78,ESE,103,8.0,10.0,79,0.00,,,0.01,WeatherCatV1.10B1784,2013-03-20 01:01:00,
2013-03-19 18:06:00,43.0,37.6,29.78,ESE,110,6.0,11.0,81,0.00,,,0.01,WeatherCatV1.10B1784,2013-03-20 01:06:00,
2013-03-19 18:11:00,42.7,37.9,29.78,SE,135,5.0,11.0,83,0.03,,,0.02,WeatherCatV1.10B1784,2013-03-20 01:11:00,
2013-03-19 18:16:00,42.5,38.3,29.77,East,98,3.0,8.0,85,0.03,,,0.02,WeatherCatV1.10B1784,2013-03-20 01:16:00,
2013-03-19 18:21:00,42.4,38.5,29.77,ESE,120,3.0,18.0,86,0.05,,,0.02,WeatherCatV1.10B1784,2013-03-20 01:21:00,
2013-03-19 18:26:00,42.3,39.0,29.76,ESE,119,4.0,7.0,88,0.05,,,0.02,WeatherCatV1.10B1784,2013-03-20 01:26:00,
2013-03-19 18:31:00,42.2,39.2,29.76,ESE,108,6.0,13.0,89,0.05,,,0.03,WeatherCatV1.10B1784,2013-03-20 01:31:00,
2013-03-19 18:36:00,42.2,39.2,29.75,East,91,11.0,18.0,89,0.06,,,0.04,WeatherCatV1.10B1784,2013-03-20 01:36:00,
2013-03-19 18:41:00,42.1,39.4,29.75,ESE,115,10.0,19.0,90,0.09,,,0.05,WeatherCatV1.10B1784,2013-03-20 01:41:00,
2013-03-19 18:46:00,42.1,39.4,29.74,SSE,150,8.0,15.0,90,0.10,,,0.05,WeatherCatV1.10B1784,2013-03-20 01:46:00,
2013-03-19 18:51:00,42.1,39.4,29.74,ESE,120,8.0,14.0,90,0.10,,,0.06,WeatherCatV1.10B1784,2013-03-20 01:51:00,
2013-03-19 18:56:00,42.0,39.6,29.74,East,89,10.0,16.0,91,0.13,,,0.08,WeatherCatV1.10B1784,2013-03-20 01:56:00,
2013-03-19 19:01:00,41.9,39.5,29.73,ESE,117,8.0,12.0,91,0.12,,,0.09,WeatherCatV1.10B1784,2013-03-20 02:01:00,
2013-03-19 19:06:00,41.9,39.5,29.73,SE,144,6.0,12.0,91,0.12,,,0.09,WeatherCatV1.10B1784,2013-03-20 02:06:00,
2013-03-19 19:11:00,41.8,39.6,29.72,ESE,118,3.0,6.0,92,0.13,,,0.10,WeatherCatV1.10B1784,2013-03-20 02:11:00,
2013-03-19 19:16:00,41.8,39.6,29.72,ESE,114,2.0,6.0,92,0.09,,,0.11,WeatherCatV1.10B1784,2013-03-20 02:16:00,
2013-03-19 19:21:00,41.8,39.6,29.72,WSW,252,1.0,4.0,92,0.09,,,0.12,WeatherCatV1.10B1784,2013-03-20 02:21:00,
2013-03-19 19:26:00,41.9,40.0,29.71,ENE,58,2.0,9.0,93,0.13,,,0.13,WeatherCatV1.10B1784,2013-03-20 02:26:00,
2013-03-19 19:31:00,41.5,39.4,29.71,SSW,194,2.0,7.0,92,0.11,,,0.14,WeatherCatV1.10B1784,2013-03-20 02:31:00,
2013-03-19 19:36:00,41.8,40.2,29.71,SE,138,3.0,14.0,94,0.11,,,0.15,WeatherCatV1.10B1784,2013-03-20 02:36:00,
2013-03-19 19:41:00,41.9,40.3,29.70,SE,142,11.0,14.0,94,0.11,,,0.16,WeatherCatV1.10B1784,2013-03-20 02:41:00,
2013-03-19 19:46:00,42.4,40.8,29.70,SE,142,10.0,16.0,94,0.13,,,0.17,WeatherCatV1.10B1784,2013-03-20 02:46:00,
2013-03-19 19:51:00,42.6,41.0,29.69,East,100,14.0,17.0,94,0.14,,,0.18,WeatherCatV1.10B1784,2013-03-20 02:51:00,
2013-03-19 19:56:00,42.7,41.1,29.69,ESE,110,10.0,19.0,94,0.17,,,0.20,WeatherCatV1.10B1784,2013-03-20 02:56:00,
2013-03-19 20:01:00,42.8,41.2,29.68,SE,138,9.0,14.0,94,0.14,,,0.20,WeatherCatV1.10B1784,2013-03-20 03:01:00,
2013-03-19 20:06:00,42.7,41.1,29.68,ENE,72,11.0,21.0,94,0.14,,,0.22,WeatherCatV1.10B1784,2013-03-20 03:06:00,
2013-03-19 20:11:00,42.6,41.0,29.68,SE,133,4.0,18.0,94,0.20,,,0.24,WeatherCatV1.10B1784,2013-03-20 03:11:00,
2013-03-19 20:16:00,42.4,40.8,29.67,ESE,103,18.0,23.0,94,0.21,,,0.25,WeatherCatV1.10B1784,2013-03-20 03:16:00,
2013-03-19 20:21:00,42.3,40.7,29.67,SE,136,17.0,22.0,94,0.20,,,0.27,WeatherCatV1.10B1784,2013-03-20 03:21:00,
2013-03-19 20:26:00,42.2,40.6,29.66,ESE,119,13.0,16.0,94,0.18,,,0.28,WeatherCatV1.10B1784,2013-03-20 03:26:00,
2013-03-19 20:31:00,42.2,40.6,29.66,ESE,114,11.0,15.0,94,0.24,,,0.30,WeatherCatV1.10B1784,2013-03-20 03:31:00,
2013-03-19 20:37:00,42.2,40.6,29.66,South,187,6.0,14.0,94,0.17,,,0.31,WeatherCatV1.10B1784,2013-03-20 03:37:00,
2013-03-19 20:42:00,41.9,40.3,29.66,ESE,102,14.0,25.0,94,0.13,,,0.33,WeatherCatV1.10B1784,2013-03-20 03:42:00,
2013-03-19 20:47:00,41.7,40.1,29.66,ESE,120,23.0,25.0,94,0.13,,,0.34,WeatherCatV1.10B1784,2013-03-20 03:47:00,
2013-03-19 20:52:00,41.5,39.9,29.65,East,92,11.0,17.0,94,0.13,,,0.35,WeatherCatV1.10B1784,2013-03-20 03:52:00,
2013-03-19 20:57:00,41.5,39.9,29.65,ESE,117,7.0,21.0,94,0.24,,,0.37,WeatherCatV1.10B1784,2013-03-20 03:57:00,
2013-03-19 21:00:00,41.5,39.9,29.65,SSE,153,7.0,19.0,94,0.17,,,0.38,WeatherCatV1.10B1784,2013-03-20 04:00:00,
2013-03-19 21:01:00,41.5,39.9,29.65,SE,126,10.0,18.0,94,0.17,,,0.38,WeatherCatV1.10B1784,2013-03-20 04:01:00,
2013-03-19 21:06:00,41.4,39.8,29.64,ESE,107,10.0,18.0,94,0.20,,,0.39,WeatherCatV1.10B1784,2013-03-20 04:06:00,
2013-03-19 21:09:00,41.4,39.8,29.64,SE,131,11.0,18.0,94,0.18,,,0.40,WeatherCatV1.10B1784,2013-03-20 04:09:00,
2013-03-19 21:14:00,41.4,39.8,29.64,SE,133,7.0,17.0,94,0.14,,,0.42,WeatherCatV1.10B1784,2013-03-20 04:14:00,
2013-03-19 21:19:00,41.5,39.9,29.64,SE,141,5.0,18.0,94,0.09,,,0.43,WeatherCatV1.10B1784,2013-03-20 04:19:00,
2013-03-19 21:24:00,41.5,39.9,29.63,ESE,109,16.0,18.0,94,0.07,,,0.43,WeatherCatV1.10B1784,2013-03-20 04:24:00,
2013-03-19 21:29:00,41.6,40.0,29.62,SE,145,10.0,20.0,94,0.07,,,0.43,WeatherCatV1.10B1784,2013-03-20 04:29:00,
2013-03-19 21:34:00,41.7,40.1,29.62,SE,127,12.0,17.0,94,0.05,,,0.44,WeatherCatV1.10B1784,2013-03-20 04:34:00,
2013-03-19 21:39:00,41.7,40.1,29.62,ESE,108,9.0,17.0,94,0.05,,,0.44,WeatherCatV1.10B1784,2013-03-20 04:39:00,
2013-03-19 21:44:00,41.7,39.8,29.61,East,98,15.0,25.0,93,0.05,,,0.45,WeatherCatV1.10B1784,2013-03-20 04:44:00,
2013-03-19 21:49:00,41.7,39.8,29.61,ESE,112,14.0,18.0,93,0.07,,,0.46,WeatherCatV1.10B1784,2013-03-20 04:49:00,
2013-03-19 21:54:00,41.7,39.8,29.61,ESE,106,14.0,16.0,93,0.07,,,0.46,WeatherCatV1.10B1784,2013-03-20 04:54:00,
2013-03-19 21:59:00,41.7,39.8,29.60,ESE,105,16.0,26.0,93,0.06,,,0.47,WeatherCatV1.10B1784,2013-03-20 04:59:00,
2013-03-19 22:04:00,41.6,39.7,29.60,ESE,116,16.0,20.0,93,0.13,,,0.48,WeatherCatV1.10B1784,2013-03-20 05:04:00,
2013-03-19 22:09:00,41.5,39.6,29.60,SE,127,6.0,14.0,93,0.14,,,0.49,WeatherCatV1.10B1784,2013-03-20 05:09:00,
2013-03-19 22:14:00,41.4,39.8,29.60,SE,138,19.0,21.0,94,0.22,,,0.50,WeatherCatV1.10B1784,2013-03-20 05:14:00,
2013-03-19 22:19:00,41.4,39.8,29.60,ESE,103,4.0,19.0,94,0.15,,,0.52,WeatherCatV1.10B1784,2013-03-20 05:19:00,
2013-03-19 22:24:00,41.4,39.5,29.60,East,95,7.0,17.0,93,0.14,,,0.53,WeatherCatV1.10B1784,2013-03-20 05:24:00,
2013-03-19 22:29:00,41.4,39.5,29.59,East,96,7.0,28.0,93,0.11,,,0.54,WeatherCatV1.10B1784,2013-03-20 05:29:00,
2013-03-19 22:34:00,41.3,39.4,29.59,ESE,120,16.0,18.0,93,0.10,,,0.55,WeatherCatV1.10B1784,2013-03-20 05:34:00,
2013-03-19 22:39:00,41.4,39.5,29.59,SSE,158,6.0,14.0,93,0.10,,,0.56,WeatherCatV1.10B1784,2013-03-20 05:39:00,
2013-03-19 22:44:00,41.4,39.5,29.58,SSE,148,6.0,16.0,93,0.07,,,0.56,WeatherCatV1.10B1784,2013-03-20 05:44:00,
2013-03-19 22:49:00,41.5,39.9,29.58,SE,127,7.0,12.0,94,0.06,,,0.57,WeatherCatV1.10B1784,2013-03-20 05:49:00,
2013-03-19 22:54:00,41.6,40.0,29.57,ESE,109,11.0,15.0,94,0.08,,,0.57,WeatherCatV1.10B1784,2013-03-20 05:54:00,
2013-03-19 22:59:00,41.7,40.1,29.57,SE,127,9.0,22.0,94,0.08,,,0.58,WeatherCatV1.10B1784,2013-03-20 05:59:00,
2013-03-19 23:04:00,41.7,40.1,29.57,SE,124,7.0,14.0,94,0.07,,,0.59,WeatherCatV1.10B1784,2013-03-20 06:04:00,
2013-03-19 23:09:00,41.8,40.2,29.56,ESE,120,6.0,17.0,94,0.07,,,0.59,WeatherCatV1.10B1784,2013-03-20 06:09:00,
2013-03-19 23:14:00,41.8,40.2,29.56,SSE,149,6.0,13.0,94,0.11,,,0.61,WeatherCatV1.10B1784,2013-03-20 06:14:00,
2013-03-19 23:19:00,41.8,40.2,29.55,SE,131,9.0,17.0,94,0.09,,,0.61,WeatherCatV1.10B1784,2013-03-20 06:19:00,
2013-03-19 23:24:00,41.9,40.3,29.55,SE,134,10.0,19.0,94,0.09,,,0.62,WeatherCatV1.10B1784,2013-03-20 06:24:00,
2013-03-19 23:29:00,41.9,40.3,29.55,SE,127,6.0,11.0,94,0.09,,,0.63,WeatherCatV1.10B1784,2013-03-20 06:29:00,
2013-03-19 23:34:00,42.0,40.4,29.55,ESE,123,5.0,15.0,94,0.09,,,0.64,WeatherCatV1.10B1784,2013-03-20 06:34:00,
2013-03-19 23:39:00,42.0,40.4,29.54,ESE,114,6.0,11.0,94,0.10,,,0.65,WeatherCatV1.10B1784,2013-03-20 06:39:00,
2013-03-19 23:44:00,41.9,40.3,29.54,SE,124,10.0,11.0,94,0.13,,,0.65,WeatherCatV1.10B1784,2013-03-20 06:44:00,
2013-03-19 23:49:00,41.9,40.3,29.53,ESE,116,9.0,16.0,94,0.19,,,0.67,WeatherCatV1.10B1784,2013-03-20 06:49:00,
2013-03-19 23:54:00,42.0,40.4,29.53,SSE,153,14.0,18.0,94,0.11,,,0.68,WeatherCatV1.10B1784,2013-03-20 06:54:00,
2013-03-19 23:59:00,42.0,40.4,29.52,ESE,123,7.0,13.0,94,0.13,,,0.69,WeatherCatV1.10B1784,2013-03-20 06:59:00,